When you browse on this site, cookies collect data to enhance your experience and personalize the content and advertising you see.
Visit our Privacy Policy to learn more. By continuing to use the site, you agree to this use of cookies and data.
  • In Spain
  • List of Countries
  • For 7 days
  • Water Temperature
  • Weather Map
  • Weather Widgets
  • user-avatar
    Login

    Hourly Weather Naftalan

    Today, 28 May, Thursday

    Time Temperature Precipitation Wind Pressure Humidity
    00:00 +19°C° 0 mm 1 mps 766 mmHg 75%
    01:00 +19°C° 0 mm 1 mps 765 mmHg 74%
    02:00 +18°C° 0 mm 2 mps 765 mmHg 73%
    03:00 +18°C° 0 mm 3 mps 765 mmHg 73%
    04:00 +19°C° 0 mm 2 mps 765 mmHg 70%
    05:00 +20°C° 0 mm 2 mps 765 mmHg 67%
    06:00 +21°C° 0 mm 2 mps 765 mmHg 65%
    07:00 +23°C° 0 mm 2 mps 765 mmHg 59%
    08:00 +24°C° 0 mm 2 mps 765 mmHg 53%
    09:00 +26°C° 0 mm 2 mps 764 mmHg 47%
    10:00 +26°C° 0 mm 3 mps 764 mmHg 46%
    11:00 +27°C° 0 mm 4 mps 764 mmHg 45%
    12:00 +28°C° 0 mm 4 mps 764 mmHg 44%
    13:00 +27°C° 0 mm 5 mps 763 mmHg 46%
    14:00 +27°C° 0 mm 5 mps 763 mmHg 47%
    15:00 +27°C° 0 mm 5 mps 762 mmHg 49%
    16:00 +26°C° 0 mm 5 mps 762 mmHg 55%
    17:00 +25°C° 0 mm 5 mps 762 mmHg 60%
    18:00 +23°C° 0 mm 5 mps 762 mmHg 66%
    19:00 +22°C° 0 mm 4 mps 762 mmHg 69%
    20:00 +21°C° 0 mm 4 mps 762 mmHg 73%
    21:00 +21°C° 0 mm 3 mps 762 mmHg 77%
    22:00 +20°C° 0 mm 3 mps 762 mmHg 78%
    23:00 +20°C° 0 mm 3 mps 762 mmHg 78%

    Tomorrow, 29 May, Friday

    Time Temperature Precipitation Wind Pressure Humidity
    00:00 +20°C° 0 mm 3 mps 761 mmHg 78%
    01:00 +20°C° 0 mm 3 mps 761 mmHg 79%
    02:00 +20°C° 0 mm 3 mps 761 mmHg 79%
    03:00 +20°C° 0 mm 3 mps 760 mmHg 80%
    04:00 +20°C° 0 mm 3 mps 760 mmHg 77%
    05:00 +21°C° 0 mm 2 mps 760 mmHg 75%
    06:00 +23°C° 0 mm 2 mps 761 mmHg 72%
    07:00 +24°C° 0 mm 3 mps 760 mmHg 67%
    08:00 +25°C° 0 mm 3 mps 760 mmHg 61%
    09:00 +27°C° 0 mm 4 mps 760 mmHg 56%
    10:00 +27°C° 0 mm 4 mps 760 mmHg 54%
    11:00 +28°C° 0 mm 5 mps 759 mmHg 53%
    12:00 +28°C° 0 mm 5 mps 759 mmHg 51%
    13:00 +28°C° 0 mm 5 mps 758 mmHg 51%
    14:00 +28°C° 0 mm 5 mps 758 mmHg 52%
    15:00 +28°C° 0 mm 5 mps 757 mmHg 52%
    16:00 +27°C° 0.2 mm 5 mps 757 mmHg 57%
    17:00 +26°C° 0.2 mm 5 mps 757 mmHg 63%
    18:00 +25°C° 0.2 mm 5 mps 757 mmHg 68%
    19:00 +24°C° 0.1 mm 7 mps 757 mmHg 68%
    20:00 +24°C° 0.1 mm 8 mps 757 mmHg 68%
    21:00 +24°C° 0.1 mm 9 mps 757 mmHg 68%
    22:00 +23°C° 0 mm 7 mps 757 mmHg 72%
    23:00 +22°C° 0 mm 4 mps 756 mmHg 76%

    Day after tomorrow, 30 May, Saturday

    Time Temperature Precipitation Wind Pressure Humidity
    00:00 +23°C° 0 mm 2 mps 756 mmHg 80%
    01:00 +23°C° 0 mm 2 mps 756 mmHg 78%
    02:00 +23°C° 0 mm 2 mps 756 mmHg 76%
    03:00 +23°C° 0 mm 2 mps 756 mmHg 74%
    04:00 +24°C° 0 mm 3 mps 756 mmHg 72%
    05:00 +24°C° 0 mm 3 mps 756 mmHg 70%
    06:00 +25°C° 0 mm 3 mps 757 mmHg 68%
    07:00 +27°C° 0 mm 3 mps 757 mmHg 61%
    08:00 +28°C° 0 mm 4 mps 757 mmHg 55%
    09:00 +30°C° 0 mm 4 mps 758 mmHg 49%
    10:00 +30°C° 0.1 mm 6 mps 758 mmHg 52%
    11:00 +29°C° 0.1 mm 9 mps 759 mmHg 54%
    12:00 +28°C° 0.1 mm 11 mps 759 mmHg 57%
    13:00 +28°C° 0.1 mm 12 mps 759 mmHg 58%
    14:00 +28°C° 0.1 mm 12 mps 759 mmHg 59%
    15:00 +27°C° 0.1 mm 12 mps 759 mmHg 59%
    16:00 +27°C° 0 mm 11 mps 759 mmHg 59%
    17:00 +26°C° 0 mm 10 mps 760 mmHg 59%
    18:00 +24°C° 0 mm 9 mps 760 mmHg 59%
    19:00 +23°C° 0 mm 8 mps 761 mmHg 61%
    20:00 +23°C° 0 mm 7 mps 761 mmHg 63%
    21:00 +22°C° 0 mm 6 mps 762 mmHg 65%
    22:00 +22°C° 0 mm 5 mps 762 mmHg 66%
    23:00 +22°C° 0 mm 4 mps 762 mmHg 67%

    31 May, Sunday

    Time Temperature Precipitation Wind Pressure Humidity
    00:00 +21°C° 0 mm 4 mps 762 mmHg 68%
    01:00 +21°C° 0 mm 3 mps 762 mmHg 69%
    02:00 +21°C° 0 mm 3 mps 762 mmHg 69%
    03:00 +21°C° 0 mm 3 mps 763 mmHg 69%
    04:00 +21°C° 0 mm 3 mps 763 mmHg 67%
    05:00 +22°C° 0 mm 3 mps 763 mmHg 64%
    06:00 +22°C° 0 mm 3 mps 763 mmHg 62%
    07:00 +25°C° 0 mm 3 mps 763 mmHg 57%
    08:00 +26°C° 0 mm 3 mps 763 mmHg 52%
    09:00 +27°C° 0 mm 2 mps 763 mmHg 47%
    10:00 +28°C° 0 mm 3 mps 763 mmHg 46%
    11:00 +28°C° 0 mm 3 mps 763 mmHg 45%
    12:00 +29°C° 0 mm 4 mps 763 mmHg 43%
    13:00 +29°C° 0 mm 4 mps 763 mmHg 44%
    14:00 +28°C° 0 mm 5 mps 763 mmHg 45%
    15:00 +28°C° 0 mm 6 mps 762 mmHg 46%
    16:00 +27°C° 0 mm 5 mps 762 mmHg 49%
    17:00 +26°C° 0 mm 5 mps 763 mmHg 52%
    18:00 +25°C° 0 mm 4 mps 763 mmHg 54%
    19:00 +23°C° 0 mm 4 mps 763 mmHg 57%
    20:00 +22°C° 0 mm 3 mps 763 mmHg 59%
    21:00 +23°C° 0 mm 2 mps 764 mmHg 61%
    22:00 +21°C° 0 mm 2 mps 764 mmHg 62%
    23:00 +21°C° 0 mm 3 mps 764 mmHg 62%

    1 June, Monday

    Time Temperature Precipitation Wind Pressure Humidity
    00:00 +21°C° 0 mm 3 mps 764 mmHg 63%
    01:00 +21°C° 0 mm 3 mps 763 mmHg 63%
    02:00 +21°C° 0 mm 3 mps 763 mmHg 64%
    03:00 +20°C° 0 mm 3 mps 763 mmHg 64%
    04:00 +21°C° 0 mm 3 mps 763 mmHg 62%
    05:00 +21°C° 0 mm 2 mps 763 mmHg 61%
    06:00 +23°C° 0 mm 2 mps 763 mmHg 59%
    07:00 +24°C° 0 mm 2 mps 763 mmHg 54%
    08:00 +25°C° 0 mm 3 mps 763 mmHg 50%
    09:00 +26°C° 0 mm 3 mps 763 mmHg 45%
    10:00 +26°C° 0 mm 3 mps 762 mmHg 43%
    11:00 +27°C° 0 mm 4 mps 762 mmHg 41%
    12:00 +28°C° 0 mm 4 mps 762 mmHg 40%
    13:00 +27°C° 0 mm 4 mps 761 mmHg 40%
    14:00 +27°C° 0 mm 5 mps 760 mmHg 41%
    15:00 +27°C° 0 mm 5 mps 760 mmHg 41%
    16:00 +26°C° 0 mm 5 mps 759 mmHg 45%
    17:00 +26°C° 0 mm 5 mps 759 mmHg 50%
    18:00 +25°C° 0 mm 5 mps 759 mmHg 54%
    19:00 +23°C° 0 mm 5 mps 759 mmHg 59%
    20:00 +22°C° 0 mm 4 mps 759 mmHg 63%
    21:00 +21°C° 0 mm 4 mps 759 mmHg 67%
    22:00 +21°C° 0 mm 4 mps 758 mmHg 69%
    23:00 +21°C° 0 mm 4 mps 758 mmHg 72%

    2 June, Tuesday

    Time Temperature Precipitation Wind Pressure Humidity
    00:00 +21°C° 0 mm 4 mps 758 mmHg 74%
    01:00 +20°C° 0 mm 3 mps 757 mmHg 75%
    02:00 +20°C° 0 mm 3 mps 757 mmHg 76%
    03:00 +20°C° 0 mm 3 mps 757 mmHg 78%
    04:00 +21°C° 0 mm 3 mps 757 mmHg 75%
    05:00 +21°C° 0 mm 3 mps 757 mmHg 72%
    06:00 +22°C° 0 mm 3 mps 757 mmHg 69%
    07:00 +25°C° 0 mm 3 mps 757 mmHg 64%
    08:00 +26°C° 0 mm 4 mps 757 mmHg 58%
    09:00 +27°C° 0 mm 4 mps 757 mmHg 52%
    10:00 +28°C° 0 mm 4 mps 757 mmHg 50%
    11:00 +29°C° 0 mm 4 mps 757 mmHg 49%
    12:00 +29°C° 0 mm 5 mps 756 mmHg 47%
    13:00 +29°C° 0 mm 5 mps 756 mmHg 48%
    14:00 +29°C° 0 mm 5 mps 755 mmHg 49%
    15:00 +28°C° 0 mm 6 mps 755 mmHg 50%
    16:00 +27°C° 0 mm 6 mps 755 mmHg 56%
    17:00 +26°C° 0 mm 6 mps 754 mmHg 61%
    18:00 +24°C° 0 mm 6 mps 754 mmHg 67%
    19:00 +23°C° 0 mm 5 mps 754 mmHg 70%
    20:00 +23°C° 0 mm 5 mps 755 mmHg 73%
    21:00 +22°C° 0 mm 4 mps 755 mmHg 76%
    22:00 +22°C° 0 mm 4 mps 755 mmHg 74%
    23:00 +22°C° 0 mm 5 mps 755 mmHg 72%
    Show more